(79) Eurynome
ephemeris date magn radius delta ra dec elong phase
Opposition13 Jan 202510.22.183 AU1.205 AU07h37m+13°04'171.6°3.8°
Today5 Feb 202510.82.228 AU1.310 AU07h17m+14°20'151.8°12.1°
(79) Eurynome - 2025-02-05
astro.vanbuitenen.nl


 
-1 year
-1 month
-1 day
Now
+1 day
+1 month
+1 year

The interactive orbit chart above shows the body's path through the solar system and its position at the given date. Green and blue lines are shown perpendicular to the ecliptic plane: Green if the path is above the ecliptic plane, blue if it is below. (Left-click and drag to rotate the view; Right-click and drag to move the view; Use scroll wheel to zoom in our out.)

The orbital elements of Eurynome are:

            e (Eccentricity)                : 0.1912313
            a (Semimajor axis)              : 2.4450632
            i (Inclination)                 : 4.61320
            Ω (Longitude of ascending node) : 206.51634
            ω (Argument of perihelion)      : 201.50903
            M (Mean anomaly)                : 24.02553
            Epoch                           : 2024 Oct 17

            L (Longitude of perihelion)     : 227.96203
            B (Latitude of perihelion)      : -1.68984
            P (Orbital period in years)     : 3.82            
        

The light curve chart below shows the estimated development of the minor planet's magnitude.


The all-sky chart below shows the path of the minor planet over the same period as the light curve. The current position is marked yellow.





The following chart shows the path of the minor planet in the next few days. The field of view is optimized for (~10x50) binoculars and finderscopes. A more printer-friendly version of the same chart can be found below.




Ephemerides:
Date       Time       RA (2000)    DEC (2000)    delta   radius  elong  phase   PA    magn
2025-02-05 00:00 UT   07 17 25.2   +14 20 09     1.310    2.228  151.8   12.1    83   10.8 
2025-02-05 11:46 UT   07 17 07.3   +14 21 56     1.313    2.229  151.3   12.3    83   10.9 
2025-02-06 00:00 UT   07 16 49.1   +14 23 47     1.317    2.230  150.7   12.5    83   10.9 
2025-02-07 00:00 UT   07 16 14.8   +14 27 25     1.325    2.232  149.6   12.9    84   10.9 
2025-02-08 00:00 UT   07 15 42.5   +14 31 02     1.333    2.234  148.5   13.3    85   10.9 
2025-02-09 00:00 UT   07 15 12.0   +14 34 38     1.341    2.236  147.4   13.8    85   11.0 
2025-02-10 00:00 UT   07 14 43.5   +14 38 13     1.349    2.238  146.3   14.2    86   11.0 
2025-02-11 00:00 UT   07 14 16.9   +14 41 46     1.358    2.240  145.2   14.6    86   11.0 
2025-02-12 00:00 UT   07 13 52.3   +14 45 19     1.367    2.242  144.1   14.9    87   11.1 
2025-02-13 00:00 UT   07 13 29.6   +14 48 50     1.376    2.245  143.1   15.3    87   11.1 
2025-02-14 00:00 UT   07 13 09.0   +14 52 19     1.385    2.247  142.0   15.7    88   11.1 
2025-02-15 00:00 UT   07 12 50.3   +14 55 46     1.394    2.249  140.9   16.1    88   11.1 
2025-02-16 00:00 UT   07 12 33.6   +14 59 12     1.403    2.251  139.9   16.4    88   11.2 
2025-02-17 00:00 UT   07 12 18.9   +15 02 35     1.413    2.253  138.8   16.8    89   11.2 
2025-02-18 00:00 UT   07 12 06.3   +15 05 56     1.423    2.255  137.8   17.1    89   11.2 
2025-02-19 00:00 UT   07 11 55.6   +15 09 15     1.433    2.257  136.8   17.5    89   11.3 
2025-02-20 00:00 UT   07 11 47.0   +15 12 31     1.443    2.259  135.7   17.8    90   11.3 
2025-02-21 00:00 UT   07 11 40.3   +15 15 45     1.453    2.261  134.7   18.1    90   11.3 
2025-02-22 00:00 UT   07 11 35.7   +15 18 56     1.464    2.263  133.7   18.4    90   11.3 
2025-02-23 00:00 UT   07 11 33.1   +15 22 04     1.475    2.265  132.7   18.7    91   11.4 
2025-02-24 00:00 UT   07 11 32.4   +15 25 09     1.485    2.267  131.7   19.0    91   11.4 
2025-02-25 00:00 UT   07 11 33.7   +15 28 11     1.496    2.270  130.7   19.3    91   11.4 
2025-02-26 00:00 UT   07 11 37.0   +15 31 11     1.507    2.272  129.7   19.6    91   11.4 
2025-02-27 00:00 UT   07 11 42.3   +15 34 06     1.519    2.274  128.8   19.9    92   11.5 
2025-02-28 00:00 UT   07 11 49.5   +15 36 59     1.530    2.276  127.8   20.1    92   11.5 
2025-03-01 00:00 UT   07 11 58.6   +15 39 47     1.541    2.278  126.8   20.4    92   11.5 
2025-03-02 00:00 UT   07 12 09.7   +15 42 33     1.553    2.280  125.9   20.6    92   11.6 
2025-03-03 00:00 UT   07 12 22.6   +15 45 14     1.565    2.282  124.9   20.9    93   11.6 
2025-03-04 00:00 UT   07 12 37.5   +15 47 52     1.577    2.284  124.0   21.1    93   11.6 
2025-03-05 00:00 UT   07 12 54.2   +15 50 25     1.589    2.286  123.1   21.3    93   11.6 
2025-03-06 00:00 UT   07 13 12.7   +15 52 55     1.601    2.289  122.2   21.5    93   11.7 
2025-03-07 00:00 UT   07 13 33.0   +15 55 21     1.613    2.291  121.2   21.7    93   11.7 


    Terminology:
            
    delta:  distance between minor planet and earth in AU
    radius: distance between minor planet and sun in AU
    magn:   magnitude (brightness) estimate    
    ra:     right ascension in hours (24h = 360deg)
    dec:    declination in degrees
    elong:  elongation in degrees (angle sun-earth-minor planet)    
    phase:  phase angle in degrees (angle sun-minor planet-earth)        
    AU:     Astronomical Unit (mean distance between earth and sun: 149597870.7 km
    

Orbital elements provided by the MPC (Minor Planet Center).
Calculations by a modified version of AAPlus, a C# implementation of the AA+ project by PJ Naughter from the algorithms presented in the book "Astronomical Algorithms" by Jean Meeus.
NGC2000 dso catalog and star labels from VizieR as provided by the Strasbourg astronomical Data Center.
Tycho2 catalog from the ESO archive.